User: anonymous   Login
Location: Street
(51.1247°N, 2.7429°W)
Time: 13:12:00
(UTC+01:00)
Language:

STRAND 1 - Orbit

View from above orbital plane
View from above orbital plane
View from above satellite
View from above satellite

Ground track
Ground track

The orbit data is extracted from the following two-line orbital elements,

1 39090U 13009E   24175.47794081  .00000404  00000-0  15344-3 0  9991
2 39090  98.3811   3.5913 0007919 228.7895 131.2610 14.36094487593143
Epoch (UTC): 23 June 2024 11:28:14
Eccentricity: 0.0007919
inclination: 98.3811°
perigee height: 766 km
apogee height: 777 km
right ascension of ascending node: 3.5913°
argument of perigee: 228.7895°
revolutions per day: 14.36094487
mean anomaly at epoch: 131.2610°
orbit number at epoch: 59314

The dashed part of the orbit path shows where the satellite is in the earth's shadow,  

DLR